Total_Precipitation_Accumulation
0.08 0.08 0.09 0.09 0.10 0.12 0.16 0.24 0.29 0.21 0.13 0.07 0.08 0.11 0.20 0.23 0.25 0.30 0.37 0.26 0.23 0.28 0.28 0.30 0.34 0.44 0.45 0.37 0.29 0.23 0.20 0.18 0.18 0.21 0.27 0.35 0.43 0.52
0.10 0.10 0.10 0.09 0.10 0.11 0.13 0.17 0.25 0.31 0.26 0.12 0.09 0.14 0.20 0.20 0.25 0.33 0.35 0.32 0.37 0.59 0.71 0.62 0.56 0.67 0.73 0.59 0.44 0.33 0.27 0.24 0.24 0.25 0.27 0.31 0.38 0.45
0.08 0.09 0.10 0.11 0.13 0.13 0.15 0.19 0.23 0.32 0.37 0.21 0.14 0.18 0.24 0.27 0.31 0.37 0.38 0.41 0.53 0.93 1.19 1.37 1.11 0.98 1.01 0.86 0.66 0.47 0.38 0.33 0.32 0.34 0.35 0.38 0.41 0.43
0.11 0.13 0.12 0.13 0.14 0.15 0.19 0.22 0.26 0.35 0.47 0.40 0.29 0.32 0.36 0.38 0.48 0.50 0.46 0.42 0.49 0.92 1.30 1.64 1.59 1.36 1.35 1.17 0.95 0.69 0.51 0.43 0.40 0.41 0.41 0.42 0.43 0.47
0.13 0.15 0.15 0.18 0.19 0.22 0.29 0.33 0.35 0.39 0.50 0.52 0.42 0.44 0.50 0.57 0.67 0.62 0.53 0.48 0.42 0.71 1.17 1.50 1.68 1.74 1.84 1.69 1.38 1.00 0.71 0.54 0.47 0.45 0.45 0.45 0.43 0.41
0.15 0.19 0.22 0.27 0.30 0.34 0.36 0.35 0.38 0.44 0.49 0.55 0.52 0.56 0.62 0.67 0.69 0.68 0.57 0.49 0.47 0.56 0.98 1.47 1.80 1.87 2.07 2.21 1.92 1.40 0.98 0.69 0.53 0.46 0.40 0.37 0.35 0.34
0.15 0.17 0.22 0.30 0.34 0.33 0.31 0.32 0.39 0.48 0.50 0.58 0.60 0.59 0.57 0.63 0.63 0.55 0.47 0.42 0.38 0.44 0.62 1.09 1.75 2.05 2.09 2.19 2.14 1.66 1.21 0.88 0.65 0.51 0.43 0.36 0.33 0.33
0.18 0.17 0.16 0.19 0.19 0.19 0.25 0.30 0.37 0.51 0.70 0.78 0.68 0.56 0.44 0.43 0.44 0.43 0.44 0.39 0.35 0.28 0.33 0.67 1.28 1.91 2.15 2.22 2.21 1.70 1.22 0.91 0.72 0.61 0.53 0.45 0.40 0.37
0.20 0.18 0.12 0.09 0.11 0.14 0.20 0.26 0.34 0.49 0.68 0.89 0.84 0.56 0.48 0.41 0.43 0.44 0.44 0.45 0.41 0.26 0.27 0.52 0.97 1.61 1.95 2.11 2.04 1.50 1.10 0.86 0.74 0.65 0.58 0.52 0.47 0.43
0.16 0.15 0.14 0.10 0.13 0.21 0.22 0.23 0.30 0.42 0.57 0.65 0.83 0.66 0.51 0.48 0.46 0.43 0.44 0.44 0.36 0.22 0.22 0.44 0.85 1.36 1.53 1.59 1.65 1.33 1.03 0.84 0.73 0.64 0.58 0.55 0.51 0.49
0.10 0.10 0.09 0.09 0.17 0.30 0.36 0.41 0.49 0.62 0.74 0.90 1.04 0.99 0.86 0.74 0.58 0.48 0.44 0.35 0.29 0.23 0.24 0.41 0.69 0.96 1.12 1.20 1.22 1.18 1.00 0.85 0.74 0.66 0.59 0.54 0.49 0.50
0.05 0.06 0.09 0.13 0.22 0.38 0.51 0.59 0.67 0.82 0.79 0.86 1.03 1.07 0.89 0.86 0.86 0.67 0.47 0.31 0.24 0.25 0.25 0.35 0.50 0.60 0.87 1.02 0.97 0.90 0.85 0.91 0.86 0.74 0.65 0.55 0.42 0.38
0.05 0.08 0.15 0.22 0.30 0.48 0.66 0.69 0.85 0.97 0.91 0.78 0.71 0.71 0.75 0.74 0.71 0.67 0.49 0.30 0.20 0.18 0.19 0.27 0.40 0.43 0.53 0.75 0.89 0.91 0.84 0.81 0.75 0.77 0.79 0.68 0.52 0.40
0.11 0.17 0.26 0.32 0.37 0.57 0.71 0.89 1.10 1.17 0.93 0.74 0.54 0.47 0.45 0.49 0.53 0.49 0.39 0.28 0.21 0.17 0.18 0.22 0.34 0.41 0.38 0.44 0.75 0.92 0.92 0.88 0.77 0.72 0.70 0.69 0.60 0.56
0.15 0.27 0.34 0.38 0.51 0.73 0.96 1.15 1.22 1.11 0.93 0.68 0.48 0.42 0.38 0.37 0.40 0.42 0.39 0.29 0.22 0.19 0.19 0.21 0.26 0.35 0.34 0.35 0.56 0.69 0.81 0.98 0.89 0.78 0.65 0.56 0.52 0.49
0.14 0.27 0.40 0.47 0.62 0.85 1.04 1.15 1.12 1.02 0.84 0.62 0.51 0.49 0.44 0.39 0.38 0.34 0.29 0.23 0.20 0.22 0.21 0.20 0.25 0.30 0.34 0.36 0.43 0.53 0.60 0.87 0.92 0.71 0.59 0.55 0.49 0.43
0.16 0.22 0.30 0.42 0.61 0.78 0.93 0.99 0.96 0.88 0.77 0.55 0.46 0.49 0.50 0.44 0.40 0.32 0.24 0.17 0.15 0.17 0.19 0.22 0.24 0.25 0.28 0.31 0.37 0.45 0.51 0.63 0.68 0.53 0.39 0.40 0.42 0.38
0.18 0.22 0.31 0.45 0.63 0.79 0.90 0.90 0.82 0.73 0.62 0.49 0.42 0.41 0.41 0.38 0.36 0.30 0.20 0.15 0.13 0.13 0.14 0.16 0.16 0.15 0.15 0.24 0.33 0.33 0.35 0.43 0.45 0.36 0.24 0.23 0.34 0.38
0.17 0.26 0.37 0.48 0.62 0.75 0.82 0.80 0.75 0.65 0.54 0.45 0.39 0.37 0.34 0.32 0.28 0.23 0.18 0.14 0.12 0.11 0.10 0.09 0.09 0.09 0.08 0.17 0.33 0.33 0.29 0.30 0.28 0.24 0.19 0.16 0.23 0.31
0.22 0.34 0.42 0.48 0.55 0.62 0.68 0.72 0.73 0.66 0.55 0.46 0.42 0.39 0.33 0.28 0.23 0.18 0.14 0.11 0.09 0.08 0.07 0.06 0.07 0.07 0.06 0.08 0.19 0.28 0.27 0.23 0.17 0.14 0.13 0.14 0.18 0.22
0.29 0.37 0.43 0.47 0.49 0.50 0.53 0.58 0.60 0.59 0.53 0.47 0.44 0.42 0.35 0.26 0.19 0.13 0.10 0.07 0.06 0.05 0.05 0.05 0.04 0.04 0.03 0.03 0.07 0.13 0.16 0.16 0.12 0.09 0.08 0.08 0.09 0.10
0.29 0.36 0.41 0.44 0.43 0.43 0.43 0.45 0.47 0.48 0.47 0.44 0.42 0.39 0.32 0.22 0.16 0.12 0.09 0.07 0.06 0.04 0.03 0.03 0.02 0.02 0.02 0.02 0.04 0.06 0.07 0.07 0.06 0.05 0.05 0.04 0.04 0.05
0.27 0.28 0.31 0.35 0.36 0.35 0.34 0.35 0.39 0.42 0.43 0.44 0.42 0.37 0.28 0.20 0.16 0.11 0.08 0.05 0.03 0.02 0.01 0.01 0.01 0.01 0.01 0.01 0.02 0.03 0.04 0.03 0.03 0.02 0.04 0.03 0.02 0.02